Regional Weather Roundup
Issued by NWS

Home | Current Version | Previous Version | Text Only | Print | Product List | Glossary On
Versions: 1 2 3 4 5 6 7 8 9 10 11 12 13 14 15 16 17 18 19 20 21 22 23 24 25 26 27 28 29 30 31 32 33 34 35 36 37 38 39 40 41 42 43 44 45 46 47 48 49 50
000
ASUS44 KFWD 222315
RWRTX
NORTH TEXAS HOURLY WEATHER ROUNDUP
NATIONAL WEATHER SERVICE FORT WORTH TX
500 PM CST WED NOV 22 2017

NOTE: "FAIR" INDICATES FEW OR NO CLOUDS BELOW 12,000 FEET WITH NO
SIGNIFICANT WEATHER AND/OR OBSTRUCTIONS TO VISIBILITY.

TXZ118-119-230000-
DALLAS/FORT WORTH METROPLEX

CITY           SKY/WX    TMP DP  RH WIND       PRES   REMARKS
DFW AIRPORT    PTCLDY    54  20  26 NW9       30.27F
DALLAS LOVE    PTCLDY    54  21  27 NW12      30.29S
FTW MEACHAM    CLEAR     55  19  24 N9        30.29S
DAL-EXECUTIVE  CLEAR     53  20  27 N9        30.28S
FTW-ALLIANCE   PTCLDY    53  18  25 N9        30.29F
FTW-NAS-JRB    CLEAR     55  19  24 NW8       30.30F
FTW-SPINKS     CLEAR     54  19  26 NW8       30.31S
ARLINGTON      CLEAR     53  19  26 NW10      30.29F
GRAND PRAIRIE  CLEAR     54  19  26 NW7       30.30F
ADDISON        CLEAR     54  19  26 NW9       30.29S
MESQUITE       CLEAR     52  18  25 NW9       30.29S
LANCASTER      CLEAR     53  20  28 NW8       30.30S
$$

TXZ091>094-102>105-117-120-121-131>134-230000-
NORTH CENTRAL TEXAS

CITY           SKY/WX    TMP DP  RH WIND       PRES   REMARKS
SHRMAN/DENISON CLEAR     49  21  32 NW5       30.30S
GAINESVILLE    CLEAR     50  18  28 NW3       30.31S
BOWIE          CLEAR     50  20  30 NW3       30.30S
BRIDGEPORT     CLEAR     52  20  27 NW6       30.32S
DECATUR        CLEAR     51  18  26 N3        30.28F
DENTON         CLEAR     51  20  29 N7        30.30S
MCKINNEY       CLEAR     52  21  29 N8        30.29S
BONHAM         CLEAR     49  20  31 N3        30.28F
GREENVILLE     CLEAR     54  21  28 N5        30.28S
ROCKWALL       CLEAR     52  21  29 N7        30.29S
TERRELL        CLEAR     54  21  27 NW10      30.28S
WAXAHACHIE     CLEAR     52  22  30 N12       30.29F
CLEBURNE       CLEAR     52  19  28 N12       30.30F
GRANBURY       CLEAR     55  21  26 NW9       30.31S
$$

TXZ083>090-098>101-113>116-127>130-139>142-154-155-230000-
WESTERN NORTH TEXAS

CITY           SKY/WX    TMP DP  RH WIND       PRES   REMARKS
WICHITA FALLS  CLEAR     52  13  21 CALM      30.29F
WF-KICKAPOO    CLEAR     54  13  19 N7        30.31F
VERNON         CLEAR     55   5  13 SE3       30.29F
ABILENE        CLEAR     53  20  27 N3        30.30F
ABILENE-DYESS  CLEAR     54  23  30 CALM      30.29F
GRAHAM           N/A     53  18  26 CALM      30.29S
BRECKENRIDGE   CLEAR     56  15  19 N5        30.30S HAZE
CISCO          CLEAR     55  18  22 N9        30.30S
EASTLAND       CLEAR     54  17  23 N9        30.29S
RANGER         CLEAR     53  20  26 N5        30.29S
MINERAL WELLS  CLEAR     53  16  23 N8        30.29S
STEPHENVILLE   CLEAR     54  17  23 N9        30.31F
COMANCHE       CLEAR     55  20  25 N8        30.30R
BROWNWOOD      CLEAR     57  16  19 N8        30.29S
COLEMAN        CLEAR     55  21  26 N6        30.30R
$$

TXZ143>147-156>162-174-175-230000-
CENTRAL TEXAS

CITY           SKY/WX    TMP DP  RH WIND       PRES   REMARKS
WACO           CLEAR     56  16  20 N13       30.28S
WACO-TSTC      CLEAR     55  18  22 NW14      30.26F
WACO-MCGREGOR  CLEAR     55  22  27 N10       30.28S
HILLSBORO      CLEAR     54  20  26 N12       30.27F
CORSICANA      CLEAR     54  27  35 N7        30.28S
MEXIA          PTCLDY    54  25  33 N9        30.26S
HEARNE         CLEAR     58  32  37 NW10      30.26S
CAMERON        PTCLDY    58  24  27 N9        30.26S
TEMPLE         CLEAR     57  16  20 N13G20    30.28R
KILLEEN        CLEAR     56  17  21 N12       30.26S
KILLEEN-SKYLRK CLEAR     56  16  20 N12       30.28R
FORT HOOD      CLEAR     56  16  20 N12       30.24S
GATESVILLE     CLEAR     55  18  22 N8        30.29S
HAMILTON       CLEAR     56  20  24 N8        30.29S
LAMPASAS       CLEAR     57  19  23 N8        30.27R
$$

TXZ095>097-106>112-122>126-135>138-148>153-164>167-230000-
EAST TEXAS

CITY           SKY/WX    TMP DP  RH WIND       PRES   REMARKS
PARIS          PTCLDY    49  26  41 NW6       30.28S
SULPHUR SPRNGS CLEAR     52  29  40 N7        30.29S
MOUNT PLEASANT CLEAR     54  30  40 NW10      30.27S
GILMER         CLEAR     55  31  40 NW5       30.24S
MINEOLA        CLEAR     54  30  40 N6        30.26S
TYLER          CLEAR     55  31  39 N8        30.25R
LONGVIEW       CLEAR     57  37  47 N3        30.23R
MARSHALL       CLEAR     54  32  43 CALM      30.26S
ATHENS         CLEAR     52  28  40 N6        30.25S
PALESTINE      CLEAR     56  34  42 NW6       30.26R
JACKSONVILLE   CLEAR     56  36  45 CALM      30.25S
HENDERSON      CLEAR     56  35  44 CALM      30.24F
CENTER         CLEAR     56  34  43 N7        30.23S
NACOGDOCHES    CLEAR     58  40  51 N6        30.23R
LUFKIN         CLEAR     59  40  49 N6        30.21R
$$

SUPPLEMENTAL OBSERVATIONS (NWS FORT WORTH AREA)

CITY           SKY/WX    TMP DP  RH WIND       PRES   REMARKS
DENISON DAM      N/A     54  23  30 N7          N/A
CADDO GRASSLND   N/A     52  23  32 N1          N/A
PAT MAYSE LAKE   N/A     52  18  25 NW5         N/A
GREENVILLE       N/A     52  23  32 N7          N/A
CEDAR HILL       N/A     54  23  30 N6          N/A
LBJ GRASSLAND    N/A     52  18  25 NW3         N/A
POSSUM KINGDOM   N/A     54  19  26 NW5         N/A
GRANBURY         N/A     54  21  28 N9          N/A
COMANCHE         N/A     54  18  24 N9          N/A
MCGREGOR         N/A     55  19  24 N8          N/A
TEMPLE           N/A     57  16  19 N14G22      N/A
LAKE LIMESTONE   N/A     55  32  41 N6          N/A
ATHENS           N/A     54  32  43 NW2         N/A
$$

SUPPLEMENTAL OBSERVATIONS (NWS NORMAN AREA)

CITY           SKY/WX    TMP DP  RH WIND       PRES   REMARKS
GOODLETT         N/A     53  21  29 S7        30.27S
ODELL            N/A     51  16  25 SE6       30.29F
CROWELL          N/A     53  19  26 S5        30.29F
KNOX CITY        N/A     54  21  27 SE5       30.30F
SEYMOUR          N/A     51  18  27 E5        30.30S
MILLERS CREEK    N/A     54  19  26 SE2         N/A
$$

SUPPLEMENTAL OBSERVATIONS (NWS SAN ANGELO AREA)

CITY           SKY/WX    TMP DP  RH WIND       PRES   REMARKS
WEINERT          N/A     54  17  23 E2        30.30F
HASKELL          N/A     55  15  20 SE2       30.30S
THROCKMORTON     N/A     53  18  25 NE1       30.31S
STAMFORD         N/A     55  21  26 CALM      30.31S
CLYDE            N/A     51  21  29 N3        30.30F
HAMBY            N/A     55  21  26 NE3         N/A
COLORADO BEND    N/A     57  18  21 N5          N/A
$$

SUPPLEMENTAL OBSERVATIONS (NWS SHREVEPORT AREA)

CITY           SKY/WX    TMP DP  RH WIND       PRES   REMARKS
TEXARKANA        N/A     54  32  43 NE2         N/A
CADDO LAKE       N/A     52  34  50 CALM        N/A
LUFKIN           N/A     59  39  47 MISG        N/A
N SABINE NF      N/A     54  45  71 MISG        N/A
$$

SUPPLEMENTAL OBSERVATIONS ARE A COLLECTION OF AUTOMATED INSTRUMENTS
THAT ARE MAINTAINED BY A VARIETY OF FEDERAL AND STATE AGENCIES.
CERTAIN ELEMENTS...SUCH AS HUMIDITY VALUES AND SUSTAINED WIND
SPEEDS...MAY BE APPROXIMATED.





USA.gov is the U.S. government's official web portal to all federal, state and local government web resources and services.